Terminal Aerodrome Forecast
Issued by NWS Knoxville/Tri Cities, TN

Home | Current Version | Previous Version | Text Only | Print | Product List | Glossary On
Versions: 1 2 3 4 5 6 7 8 9 10 11 12 13 14 15 16
000
FTUS44 KMRX 192320
TAFCHA
TAF
KCHA 192320Z 2000/2024 18007KT P6SM BKN035
     FM200700 17005KT P6SM OVC030
     FM201400 17008KT P6SM BKN035=

USA.gov is the U.S. government's official web portal to all federal, state and local government web resources and services.